Theta_e
295 295 295 295 295 296 296 296 296 296 299 301 301 302 303 304 304 305 306 305 303 304 305 305 305 305 305 305 305 305 306 306 306 306 306 306 307 307 307 308 309 310 311 312 312 311 309 307 308 310 309 309 310 309 310 310 309 310 313 313 316 321 319 316 316 315 313 313 314 313 313 314 314 315 315 314 316 315 317 327 329 320 318 321 319 317 331
295 295 295 295 295 295 296 295 295 297 299 300 301 302 302 303 304 305 306 306 304 304 305 306 305 306 305 306 306 305 305 306 306 307 306 307 307 308 308 309 309 310 311 311 312 311 310 309 309 311 311 311 311 310 309 310 310 311 315 318 319 319 318 318 318 316 314 313 314 314 313 314 315 315 314 314 315 315 316 321 322 319 321 323 323 323 333
295 295 295 295 296 296 296 296 296 298 299 300 301 302 303 304 304 305 305 305 305 305 305 306 306 306 306 306 307 307 306 306 306 307 307 308 309 309 310 310 310 311 311 311 312 311 310 310 309 310 311 311 312 310 309 310 310 311 315 317 319 320 320 322 322 320 319 317 315 315 314 313 315 316 315 315 314 314 316 317 317 320 323 322 326 331 334
294 295 295 295 296 296 296 296 296 299 300 300 302 303 303 304 304 304 303 304 305 305 305 306 306 306 307 308 308 308 308 308 308 307 308 309 310 310 311 311 311 312 313 313 313 311 310 310 311 311 312 313 312 310 310 310 310 313 314 314 317 320 321 323 324 324 323 319 315 314 314 313 314 315 314 315 316 316 317 317 319 326 325 318 325 335 333
294 294 294 295 295 295 296 296 297 299 301 300 302 302 302 303 303 302 302 303 304 304 304 305 304 305 307 308 308 308 309 309 309 309 309 309 309 310 311 312 312 313 313 313 314 311 309 311 312 312 313 313 312 311 311 310 311 314 314 312 318 323 322 321 322 322 320 316 314 314 314 313 313 315 315 315 316 316 318 321 325 333 330 320 325 336 332
294 294 294 294 295 295 296 296 296 299 300 300 301 302 301 302 302 302 302 302 303 303 302 303 304 305 307 308 308 308 309 309 310 310 309 309 309 310 312 312 312 312 312 312 314 313 312 313 314 314 314 313 313 314 312 310 311 313 313 313 318 324 323 321 320 320 318 315 314 314 314 313 313 316 317 317 318 317 319 324 326 330 333 330 331 335 333
294 294 294 294 294 295 296 296 296 298 300 300 300 301 301 301 301 301 301 301 301 302 302 303 305 305 308 309 309 309 309 309 310 309 309 309 308 308 311 312 312 312 311 312 314 315 316 318 317 318 318 315 312 313 313 312 310 311 314 315 317 320 322 320 319 319 319 318 315 313 313 313 314 316 318 320 321 321 320 322 322 323 329 335 337 334 332
293 293 294 294 294 294 295 296 296 297 299 300 300 300 300 300 300 300 300 301 301 302 303 304 305 306 308 309 309 309 309 309 310 310 309 310 309 308 311 313 312 312 312 313 315 315 316 317 318 317 318 317 313 311 312 312 311 311 313 315 318 320 319 318 319 320 321 320 318 317 315 314 315 315 316 318 320 320 319 320 321 321 324 333 336 333 332
293 293 293 294 294 294 295 296 296 296 298 299 299 299 299 299 299 300 300 301 302 303 304 304 305 307 308 309 308 308 309 309 310 310 309 309 309 309 311 313 313 313 313 314 316 315 315 316 316 316 316 317 316 314 313 312 312 313 312 315 321 323 322 321 321 322 323 322 321 322 319 316 316 317 316 317 319 320 320 320 321 320 322 330 333 331 333
293 293 293 294 294 294 294 295 296 296 297 298 298 298 299 299 299 299 300 301 302 302 303 303 305 307 307 307 308 309 309 309 310 311 310 309 309 310 312 313 314 314 314 315 315 314 313 314 315 315 315 316 317 316 315 314 313 314 315 317 320 321 322 323 320 319 322 322 322 328 325 317 318 321 321 320 320 322 321 321 323 323 322 329 333 331 332
293 293 293 294 294 294 294 294 295 296 297 297 298 298 298 298 299 299 300 301 302 302 302 303 304 305 305 306 308 308 308 309 309 310 311 311 310 311 312 313 314 315 315 314 313 312 313 314 314 315 315 315 316 316 315 313 311 313 317 321 320 319 321 322 318 317 321 322 326 334 329 320 321 325 325 324 323 322 321 322 326 326 323 327 333 334 332
293 293 293 293 294 294 294 294 295 296 296 297 297 298 298 298 299 299 300 301 301 301 302 302 303 303 305 306 307 308 308 309 310 310 311 311 311 312 312 312 314 316 314 312 313 313 313 314 315 316 317 317 317 317 315 314 311 311 315 320 320 320 320 320 318 319 321 322 327 329 322 320 326 328 326 327 326 324 326 329 330 328 325 327 331 333 334
293 293 293 293 294 294 294 294 294 295 296 296 297 298 299 299 299 299 299 300 301 301 301 301 302 303 305 306 307 307 309 309 310 311 312 312 312 313 312 312 313 315 313 312 313 314 315 317 319 321 320 318 319 319 316 314 314 313 313 315 317 318 319 318 319 322 321 321 327 327 321 322 330 329 326 327 327 326 329 331 332 329 324 325 330 331 333
293 293 293 293 293 294 295 294 294 295 295 296 297 298 299 299 299 299 299 300 300 301 300 301 303 303 304 305 306 307 309 310 310 311 312 312 313 313 312 312 312 312 313 313 313 315 317 319 321 323 322 321 323 324 320 313 313 315 315 313 314 316 317 317 318 321 321 321 327 327 321 323 329 326 325 326 325 324 323 323 331 334 325 320 326 330 331
293 293 293 293 293 294 294 295 294 294 295 296 297 298 299 299 299 300 299 299 300 300 301 302 303 303 303 305 307 307 309 309 310 311 312 312 313 313 312 313 313 312 313 314 315 316 317 318 320 323 323 322 322 321 319 313 311 315 317 315 314 314 316 320 321 319 316 318 322 320 317 324 331 329 328 326 321 323 323 320 328 336 326 318 321 327 330
293 293 293 293 293 293 294 295 294 294 295 295 296 298 299 299 299 300 300 299 299 301 302 303 302 302 304 306 307 308 308 309 309 310 311 311 312 313 313 313 314 313 313 315 317 317 316 317 320 322 321 320 319 319 319 313 309 312 315 315 315 313 315 321 323 319 315 315 318 318 317 324 332 331 329 324 318 322 324 321 325 331 325 319 320 323 328
292 293 293 293 293 293 294 294 295 295 295 295 295 297 299 299 299 300 300 300 299 300 302 303 302 303 304 305 306 307 307 308 309 311 311 310 312 313 313 313 315 314 313 316 319 320 318 316 317 320 319 318 319 320 319 314 311 313 314 314 315 316 316 318 319 319 318 316 317 318 319 324 329 328 325 321 318 320 322 323 329 329 324 322 322 321 327
293 293 293 292 293 293 294 294 295 295 295 294 295 297 299 299 299 300 300 300 299 300 302 303 302 302 303 304 305 305 306 307 308 309 310 310 312 313 312 313 315 315 314 316 317 318 317 315 316 319 319 317 317 318 318 317 317 316 315 315 317 317 316 317 319 320 319 317 317 319 322 328 330 325 320 318 320 323 324 328 330 326 322 324 323 321 325
292 293 293 293 293 293 294 294 295 295 295 295 295 297 298 299 299 300 300 300 300 300 302 303 303 303 305 305 304 305 306 307 308 309 310 311 312 312 312 313 314 315 314 315 316 316 316 316 315 316 318 317 317 317 318 319 318 316 315 317 318 318 317 316 317 318 318 318 318 318 321 325 326 322 319 319 325 328 328 328 327 324 324 325 324 323 323
293 293 293 293 293 293 294 294 295 295 295 295 295 296 297 299 299 300 300 301 301 301 303 305 305 305 306 305 305 306 307 307 308 309 311 311 311 311 313 314 315 315 315 316 317 317 316 317 317 317 319 319 317 317 319 319 317 316 316 316 318 319 318 316 317 318 317 317 316 316 320 322 322 323 323 323 329 331 327 325 325 325 325 325 326 326 323
293 293 293 293 293 293 293 294 295 295 295 295 295 296 297 298 299 300 300 301 301 301 303 305 305 305 306 306 306 306 306 306 307 308 309 310 310 311 313 314 314 315 315 315 316 317 316 317 318 318 319 319 318 318 319 318 317 317 315 315 317 318 317 317 318 316 315 316 317 318 322 323 323 325 326 325 327 327 325 324 325 325 324 324 326 328 325
293 293 294 293 294 294 294 294 294 295 295 295 295 295 296 297 298 300 301 300 301 302 303 305 306 306 308 309 308 309 308 307 308 307 307 308 309 309 311 313 314 314 314 315 316 316 316 317 318 317 319 319 318 318 318 318 319 319 316 317 319 319 318 319 319 316 317 322 325 324 323 323 323 325 326 325 325 325 324 325 324 324 325 325 326 327 326
293 293 294 294 294 294 293 293 294 295 295 296 295 295 295 296 298 300 301 301 301 303 304 305 307 308 310 311 310 310 310 309 308 308 307 307 308 309 311 313 314 314 314 314 315 316 316 316 316 316 318 319 319 319 319 319 320 320 319 319 319 317 317 318 319 320 322 324 325 323 321 322 324 325 325 325 325 324 324 324 324 323 324 324 326 328 327
293 293 294 294 294 293 293 293 294 295 295 296 295 295 295 295 296 298 300 301 302 303 305 305 306 308 310 310 310 310 311 310 309 309 308 307 308 310 312 313 313 313 314 314 314 315 315 315 316 317 318 319 320 320 319 318 319 320 322 323 319 315 316 317 318 322 324 323 324 323 322 321 322 323 323 323 324 324 323 324 324 324 324 325 325 327 327
294 292 292 293 293 293 292 292 293 294 295 296 295 295 296 295 295 297 299 301 302 303 304 305 306 308 308 308 309 310 311 310 309 309 309 309 309 310 311 312 312 313 313 313 313 314 314 314 316 319 319 317 319 321 318 318 320 319 320 322 321 318 318 319 319 321 322 322 323 322 320 320 320 321 321 321 322 322 322 323 324 323 323 325 325 326 327
295 292 291 292 292 292 292 292 292 294 295 296 296 296 296 296 297 299 301 302 302 304 304 305 307 307 306 307 308 309 310 310 310 309 309 309 309 309 310 310 311 312 313 313 313 313 313 313 315 318 318 317 317 319 319 320 320 319 320 321 321 319 319 320 322 321 321 323 323 321 319 321 320 320 321 322 323 322 322 323 324 324 324 325 325 325 326
295 292 291 292 292 292 292 291 292 294 295 296 297 296 296 298 301 303 304 303 303 305 306 305 307 306 305 307 309 309 310 311 311 310 309 309 309 310 310 311 312 313 312 312 312 312 312 313 315 317 317 316 317 318 319 319 320 320 321 321 320 320 321 324 327 326 324 324 323 322 322 324 323 321 322 323 323 323 322 323 324 324 323 324 324 324 324
294 292 292 292 292 292 291 291 292 294 295 296 296 296 298 302 305 306 305 304 304 305 306 306 306 306 306 309 310 309 310 311 311 310 310 309 310 310 311 311 312 313 312 312 312 311 312 313 315 316 316 316 317 319 319 319 319 320 320 320 319 320 321 323 326 328 326 323 322 321 322 324 323 322 322 322 322 323 322 322 323 323 322 323 323 324 324
294 292 292 292 292 292 291 291 292 293 294 296 296 297 302 307 307 306 306 305 305 305 306 305 305 305 307 309 309 309 310 311 311 311 311 311 311 311 311 312 312 312 312 311 310 310 311 312 313 315 316 316 318 320 319 318 319 320 319 319 319 320 320 321 323 325 324 322 321 322 322 323 323 323 322 322 322 323 323 323 323 322 321 322 324 324 324
293 292 292 292 292 292 291 291 292 293 295 295 295 298 304 308 307 306 307 306 306 305 305 304 305 305 306 308 309 310 311 311 311 312 312 313 313 313 313 312 312 311 311 311 310 310 311 311 311 314 316 316 317 318 319 318 319 318 318 318 319 319 320 320 320 322 322 321 322 322 322 322 322 322 322 322 322 322 322 322 322 321 321 322 323 323 323
292 292 292 292 292 292 291 291 292 293 294 295 295 298 304 308 308 308 308 307 306 304 304 304 304 305 306 308 310 311 311 311 312 313 313 314 314 314 314 313 311 310 311 311 311 311 312 312 312 313 315 315 316 317 317 318 319 319 317 317 317 318 319 319 319 320 320 320 321 321 321 321 321 321 321 321 322 322 322 321 321 321 321 321 321 323 323
292 292 292 292 292 291 291 292 293 294 295 296 295 297 301 304 304 304 305 306 305 304 304 304 305 306 307 309 309 310 311 312 313 313 314 314 314 314 314 313 311 311 311 311 311 311 311 312 312 312 313 314 316 316 317 318 320 320 317 316 316 317 318 318 319 319 319 320 320 321 321 321 321 321 320 320 321 321 320 320 320 320 320 320 320 321 321
292 292 292 292 291 291 291 293 294 295 296 296 296 297 301 303 302 302 303 304 304 304 304 305 306 307 308 309 310 311 311 311 312 313 314 314 314 314 314 312 311 311 312 311 311 311 311 311 312 313 314 315 315 316 317 319 320 318 316 315 316 317 317 317 318 318 319 319 320 320 321 320 320 320 320 320 320 320 319 319 320 320 320 319 319 320 320
291 292 292 291 291 292 293 295 295 296 296 296 297 299 304 307 307 306 305 304 304 304 305 306 307 308 310 310 312 312 311 310 311 313 314 314 314 314 313 312 312 312 312 312 311 310 310 311 312 313 315 316 314 315 317 318 317 316 315 315 316 316 316 316 317 317 317 318 318 318 319 319 319 319 319 319 320 319 319 319 319 319 319 319 319 319 320
292 292 291 291 293 294 295 296 296 297 297 298 301 304 307 308 308 308 308 306 305 306 307 307 307 309 311 312 313 312 310 309 309 311 313 313 313 314 313 312 312 313 313 312 312 311 311 311 312 312 314 315 315 316 318 318 317 316 316 316 315 315 315 315 316 317 317 317 317 317 317 318 318 318 319 319 319 319 319 318 319 319 319 318 319 319 319
292 292 291 293 296 297 298 299 301 301 302 304 306 308 308 308 308 308 307 306 306 306 307 308 309 310 311 312 313 311 309 309 309 310 312 313 314 314 312 312 313 314 312 311 312 313 312 312 313 314 315 316 316 316 316 316 316 316 316 316 316 315 315 315 316 316 316 316 316 316 316 317 317 317 318 318 318 318 318 318 319 319 318 318 318 318 319
292 292 293 297 300 301 303 305 306 306 306 307 308 308 307 307 307 306 305 305 306 306 306 307 309 309 309 311 312 311 310 310 309 310 311 312 313 314 312 313 314 314 312 313 314 313 311 312 314 316 317 317 317 316 315 315 315 315 315 315 315 314 314 314 314 315 315 315 314 315 315 316 316 316 316 317 317 317 317 317 318 318 317 317 317 317 318
292 293 295 299 302 304 306 308 308 308 308 308 307 306 306 306 306 307 307 306 306 306 306 306 307 308 308 310 312 311 310 310 309 309 310 309 310 312 312 312 312 312 313 315 314 311 310 312 314 317 317 315 315 315 315 315 315 314 314 314 314 313 313 313 314 314 314 314 313 314 314 314 314 314 315 315 316 316 317 316 317 317 317 317 316 316 316
293 294 296 299 301 303 305 306 306 307 307 306 306 306 306 307 308 309 309 308 307 307 307 307 308 308 309 311 312 311 309 309 310 311 309 308 308 309 309 309 308 309 312 313 311 311 313 313 313 316 317 315 314 314 314 314 314 314 314 313 313 312 312 312 312 313 313 313 312 312 312 313 313 313 314 314 315 315 316 316 316 316 316 316 316 315 315
293 294 295 298 299 301 302 303 304 304 305 306 307 308 307 308 309 310 310 310 310 309 309 310 310 310 310 311 312 311 309 308 309 309 309 308 308 307 308 308 308 309 311 312 310 311 312 312 314 317 318 316 314 314 313 312 313 313 313 312 312 312 312 312 312 312 312 312 312 312 312 312 312 312 313 313 313 314 314 315 314 314 315 315 315 314 315
291 292 294 297 299 299 300 301 301 303 304 306 308 308 308 308 309 309 309 310 311 311 310 311 312 311 311 311 310 310 309 308 306 306 307 308 307 306 308 309 308 309 310 310 308 310 311 311 315 318 318 314 313 313 313 312 312 312 312 312 311 311 312 312 312 312 312 311 311 311 311 311 311 311 312 312 313 313 313 313 313 313 313 313 313 313 313
293 295 296 298 300 300 300 301 302 304 306 307 307 307 308 308 308 308 308 309 309 309 309 310 311 310 310 309 308 308 308 307 306 306 307 308 306 306 308 309 308 308 309 309 309 310 310 310 314 317 316 313 313 313 312 312 312 312 311 311 311 311 311 311 311 311 311 311 311 311 311 311 311 311 311 312 312 312 312 312 312 312 312 312 312 312 312
296 298 298 299 301 302 302 303 305 305 306 307 306 306 307 307 307 308 308 308 308 308 309 310 309 309 309 309 309 308 308 307 306 306 307 307 306 305 307 308 307 308 309 309 310 310 309 311 315 317 315 312 312 312 312 312 312 311 311 311 310 311 311 311 311 311 311 310 311 311 311 311 311 310 310 310 311 311 311 311 311 311 311 311 312 311 311
297 300 300 300 301 302 303 305 306 306 306 307 306 306 307 308 308 309 309 309 309 309 309 309 309 310 311 311 309 309 309 308 307 306 306 306 306 306 306 307 308 308 308 309 310 310 310 313 316 315 313 312 312 312 311 311 311 311 311 310 310 310 310 310 310 310 310 310 310 310 311 311 311 311 310 310 310 310 310 310 310 310 310 310 311 311 311
298 300 300 301 302 303 304 305 306 306 306 307 307 307 308 309 309 310 310 310 309 309 309 309 308 309 311 310 309 308 308 307 307 307 306 306 306 306 306 307 308 308 308 309 310 309 311 314 315 313 312 313 312 311 311 311 311 311 311 311 310 310 310 310 310 310 310 310 310 310 311 311 311 311 310 310 310 310 310 310 310 310 309 309 310 310 310
298 298 299 301 303 304 304 304 305 305 306 306 307 307 308 308 309 310 309 309 309 309 309 309 309 309 310 309 309 309 308 306 306 307 306 305 305 305 305 305 307 307 307 308 308 309 311 314 315 313 312 312 311 311 311 311 310 310 311 311 310 310 310 310 310 310 310 310 310 310 311 311 310 310 310 310 309 309 309 309 309 309 309 308 309 309 309
298 298 299 300 302 303 304 304 305 305 306 306 306 307 307 307 308 309 308 308 309 309 308 308 309 309 309 309 309 309 309 308 307 306 306 305 305 305 305 305 306 306 306 306 307 308 311 313 314 313 313 312 312 311 311 311 311 311 311 310 310 310 310 310 310 310 310 310 310 310 310 310 310 309 309 309 309 309 309 308 308 308 308 308 308 308 308
297 298 298 300 302 303 304 305 305 305 305 305 306 307 308 308 308 308 308 308 308 309 309 309 309 309 309 309 309 310 310 308 306 305 305 305 305 305 305 305 306 306 308 309 309 310 312 313 313 313 313 312 312 312 311 311 311 311 310 310 310 310 310 310 310 309 309 310 310 310 310 310 310 309 309 309 309 308 308 308 308 308 308 308 307 307 307
297 297 298 299 301 302 303 303 303 304 305 306 306 307 307 307 307 307 307 308 308 308 309 308 308 309 309 309 308 309 310 309 307 306 305 305 305 305 305 305 305 306 308 311 312 311 312 312 313 313 313 312 312 312 311 311 311 310 310 310 310 309 309 309 309 309 310 310 310 310 310 310 310 310 309 309 309 308 308 308 308 308 307 307 307 307 307
297 296 297 298 298 299 300 302 303 304 305 306 307 307 307 307 308 307 307 307 307 307 308 308 308 308 308 308 307 308 309 309 308 307 306 306 305 304 304 304 306 308 309 310 311 311 311 312 313 313 313 312 312 312 311 311 311 310 310 310 309 309 309 309 309 309 309 309 309 310 310 310 310 310 309 309 309 309 308 308 307 307 307 307 307 307 307
296 296 296 297 298 299 300 301 302 302 302 304 306 307 307 307 308 308 307 307 307 307 309 309 308 307 307 307 307 308 308 307 308 308 308 307 307 305 305 306 309 310 310 308 308 309 311 312 313 313 313 312 312 311 310 310 310 310 310 309 309 309 309 309 309 309 309 309 309 310 309 309 310 310 309 309 308 308 308 307 307 306 307 307 307 307 307
296 296 297 297 297 298 299 299 300 300 300 303 306 306 306 306 307 307 307 307 307 307 308 308 307 307 307 307 307 308 308 307 307 308 308 308 307 307 307 309 310 310 309 308 308 309 310 312 313 313 313 312 312 311 310 309 310 310 310 310 310 309 309 309 309 309 309 309 309 309 309 309 309 309 308 308 308 308 308 307 306 306 306 306 306 306 306
Wind_Speed
24 24 25 25 26 27 28 30 29 28 28 30 30 25 15 10 11 11 12 10 3 3 5 4 2 2 5 8 9 10 8 5 6 6 3 3 2 2 3 4 4 3 4 4 5 7 3 5 3 2 4 8 9 13 17 14 9 4 2 4 3 3 4 6 4 2 6 7 7 10 10 5 4 5 5 4 5 7 5 3 4 2 3 3 3 3 5
25 25 25 26 26 26 28 29 28 25 24 25 26 22 15 15 17 12 9 7 4 3 3 4 4 6 7 7 8 7 5 5 6 5 4 4 2 2 3 4 4 4 6 5 5 8 3 4 2 4 2 6 12 15 18 15 8 3 2 1 2 2 2 6 5 2 4 6 5 7 8 5 2 3 5 4 5 11 8 3 1 2 4 5 6 3 6
25 25 25 26 26 27 27 27 26 23 20 20 20 18 15 14 12 9 8 7 5 6 7 6 6 8 9 8 8 5 3 5 7 6 5 4 3 3 4 5 6 6 6 6 7 7 1 4 4 6 4 5 7 11 18 16 8 7 2 8 3 4 2 5 5 4 6 6 4 3 3 2 1 2 5 6 6 11 10 3 1 3 5 4 6 3 5
23 24 25 24 25 25 26 26 24 20 18 18 17 14 12 9 5 6 10 11 8 9 12 10 5 7 9 8 8 7 5 3 3 3 4 6 7 5 4 6 6 5 6 6 5 2 3 3 5 5 4 4 5 11 19 17 7 8 6 9 7 2 2 4 6 5 5 5 4 3 3 3 3 4 4 5 5 6 7 4 4 5 2 0 3 6 4
23 23 24 24 23 24 25 25 22 19 18 17 14 12 11 7 3 4 7 9 9 10 13 11 7 10 10 6 5 8 7 5 4 2 3 8 11 5 3 5 5 4 7 6 4 2 7 8 5 3 3 2 2 6 12 11 3 1 2 5 4 3 2 3 5 3 5 6 8 8 7 6 5 5 6 7 7 4 5 5 6 5 4 2 3 9 9
23 23 23 23 22 23 24 24 23 20 18 16 14 12 10 7 4 7 9 7 6 7 12 13 12 15 13 5 4 7 8 8 6 3 4 8 10 5 2 6 9 8 9 5 4 3 4 3 2 2 2 3 5 3 4 3 3 4 5 3 2 3 1 1 2 4 6 6 9 11 10 8 7 7 8 9 9 6 5 7 4 3 6 4 5 10 9
22 22 23 23 21 21 22 22 23 21 18 17 15 11 10 7 5 8 11 9 8 10 16 18 14 13 10 4 4 8 10 10 6 1 3 6 7 5 4 7 10 11 10 5 3 4 4 3 4 5 5 5 3 1 5 5 4 3 2 3 2 3 1 2 2 3 7 7 10 14 14 10 7 5 6 6 8 8 6 6 3 3 6 9 9 10 7
21 21 22 22 21 20 21 21 22 22 20 18 16 13 11 9 7 10 12 11 11 13 15 14 10 8 7 5 6 9 10 11 7 2 1 3 5 4 4 9 10 10 10 6 3 4 5 4 5 7 8 5 2 1 2 3 3 3 2 3 3 3 1 2 5 4 7 6 3 9 13 12 7 6 7 6 6 5 4 3 3 4 4 7 11 11 5
21 21 21 22 22 20 19 20 21 21 21 19 16 13 12 12 11 13 12 7 8 10 10 10 7 5 5 6 8 10 10 11 10 4 4 3 2 4 4 7 8 6 8 7 4 5 6 5 8 8 7 6 5 4 3 2 3 3 1 3 3 4 1 2 6 4 6 3 5 2 8 12 8 7 8 8 6 3 2 2 3 5 4 5 8 9 5
21 21 21 21 21 20 18 18 19 19 20 19 16 14 15 15 15 14 9 5 7 8 8 8 7 4 6 10 11 11 11 11 11 5 4 7 5 7 5 5 5 5 7 6 6 11 12 12 16 16 14 15 13 11 8 2 4 1 1 3 2 3 3 2 4 2 5 0 7 5 4 9 6 6 5 6 6 4 1 2 2 5 6 6 5 6 8
20 21 21 20 20 20 19 17 17 18 18 18 16 15 15 15 16 14 8 4 5 8 6 5 6 7 11 16 14 11 12 12 10 8 3 3 5 4 1 3 3 3 4 5 9 15 17 17 20 19 17 17 15 14 12 2 7 3 1 3 2 3 4 1 2 1 4 1 7 6 5 5 5 5 1 1 3 4 2 3 4 5 4 6 5 7 11
19 20 21 20 19 20 19 16 15 16 17 15 14 14 12 12 14 12 6 3 5 7 6 6 9 11 14 16 14 13 13 14 14 13 9 8 9 3 6 4 1 2 4 6 11 15 15 12 12 10 11 14 14 14 12 3 8 3 3 5 2 4 4 1 0 2 3 3 8 5 1 3 5 4 2 5 6 5 2 3 4 6 6 8 10 12 14
19 19 19 19 19 19 19 17 14 14 15 15 14 13 11 11 12 11 8 5 4 5 6 10 15 16 16 16 14 14 17 19 21 18 11 8 11 4 5 5 6 3 1 2 6 8 7 5 5 5 7 9 8 8 7 3 6 1 3 5 1 4 4 1 1 1 1 3 5 2 3 4 5 5 3 4 5 7 7 5 7 5 6 8 11 13 13
19 19 18 19 19 19 19 18 15 13 14 15 14 12 10 9 9 11 9 4 4 9 10 8 10 13 15 16 14 13 16 17 18 16 12 9 9 8 7 3 7 1 6 6 3 4 3 2 3 4 4 5 4 5 4 4 5 0 1 3 1 2 2 1 2 1 2 2 2 2 1 4 6 6 2 3 4 4 4 1 6 6 3 6 11 13 11
19 19 18 18 18 18 18 18 15 13 13 15 14 10 8 7 7 9 9 6 5 9 7 4 9 12 13 14 14 11 9 9 10 12 13 11 8 10 13 12 8 4 7 6 2 0 1 2 2 3 3 3 2 4 4 3 4 5 4 4 3 3 2 2 1 1 3 4 2 1 2 2 4 7 6 1 4 3 4 3 4 6 4 1 8 14 14
19 19 18 18 18 17 17 18 16 14 13 14 13 9 6 5 6 8 11 9 3 5 9 12 16 15 12 12 14 11 6 5 7 7 7 10 11 12 17 20 14 6 4 4 1 1 2 2 2 2 1 1 1 2 3 3 4 5 4 5 7 7 3 3 4 2 2 4 1 1 2 3 6 7 6 2 1 2 5 4 4 6 7 9 2 11 15
19 18 18 18 18 17 17 17 17 16 14 13 14 11 5 3 7 9 11 8 4 11 17 14 12 12 10 7 9 9 7 8 8 5 4 8 12 16 22 25 18 9 5 3 1 2 4 3 1 2 2 2 1 2 3 1 3 4 4 5 7 5 1 3 4 1 1 3 1 1 1 4 6 5 5 4 5 8 8 2 6 6 9 14 7 8 16
18 18 18 17 17 17 17 17 16 16 16 14 14 13 8 5 7 7 10 10 6 10 15 12 11 15 12 7 9 10 9 9 7 4 6 8 8 15 22 19 12 10 8 3 1 1 2 3 3 2 1 2 2 2 3 1 1 2 2 2 1 1 1 3 3 1 0 2 2 1 1 4 5 2 6 8 8 8 4 6 7 7 11 16 12 6 16
19 18 18 17 17 17 17 17 16 15 16 15 15 14 10 5 4 6 11 12 6 12 23 22 18 18 13 9 12 13 10 11 9 6 5 4 9 21 21 11 8 10 9 5 2 1 1 0 1 2 2 1 3 2 2 1 1 1 2 3 1 1 1 1 3 2 1 2 2 0 2 5 4 2 8 10 7 2 4 6 4 7 11 16 17 9 9
19 19 18 17 17 17 16 17 16 16 16 16 16 16 11 6 4 5 10 12 12 21 28 19 11 14 15 13 15 13 10 11 10 5 3 4 13 21 13 4 9 11 6 4 3 2 1 3 3 1 2 1 1 1 1 2 3 2 2 3 2 2 1 0 2 2 1 0 0 1 2 4 1 4 5 5 4 4 4 3 6 11 15 16 18 17 5
20 19 19 18 17 17 16 16 16 16 16 15 15 17 13 9 5 4 7 12 15 19 19 15 17 23 23 22 23 21 19 18 14 9 8 11 14 11 3 2 7 6 2 3 3 2 3 3 2 2 2 1 1 1 1 2 5 4 3 4 2 2 2 1 2 1 2 1 2 3 5 3 2 5 3 3 5 4 4 6 7 13 17 16 15 17 9
21 19 19 18 17 17 16 16 16 16 16 14 15 17 15 12 7 2 6 11 15 20 23 25 26 23 18 16 17 17 18 20 18 16 15 15 13 9 7 7 6 3 3 5 2 1 3 3 1 2 2 1 1 2 1 1 3 4 1 3 2 2 4 4 1 0 2 3 4 3 1 4 10 11 8 8 9 8 8 7 8 11 12 13 13 14 10
22 20 18 18 17 16 16 16 16 16 15 15 15 16 17 16 10 4 7 12 18 26 27 22 16 12 11 13 16 16 14 12 9 11 15 14 10 9 7 5 6 4 5 5 2 1 2 2 1 1 2 2 1 2 2 1 1 3 3 2 2 2 5 5 2 2 2 1 1 3 5 8 11 11 9 9 7 6 6 6 7 8 8 9 10 11 12
23 21 19 18 17 16 16 16 16 15 15 15 15 16 18 18 14 10 10 12 16 20 19 16 14 11 11 16 21 21 17 11 5 3 8 13 10 5 2 4 8 5 6 8 7 4 3 3 2 2 1 2 1 2 2 1 1 2 3 4 4 3 2 2 2 3 3 1 3 4 5 4 6 8 6 5 4 3 3 4 4 4 5 7 8 9 13
24 22 20 19 16 16 16 15 15 15 14 14 15 16 17 17 15 11 8 9 13 11 8 13 16 10 12 22 23 18 16 13 8 3 4 9 10 8 5 4 6 6 8 11 10 6 4 3 2 1 1 1 1 1 1 2 2 2 2 2 2 4 7 5 1 3 3 2 2 1 2 3 6 7 4 4 5 3 2 3 3 1 1 4 5 7 11
24 23 21 19 17 15 15 15 15 14 13 14 16 16 18 18 15 9 5 6 13 11 6 8 14 15 22 25 16 10 13 15 11 7 4 4 5 7 7 7 6 6 9 10 8 6 5 2 1 2 2 1 1 1 2 3 3 2 1 2 3 4 5 3 1 3 4 2 2 4 3 3 6 7 4 4 6 5 2 2 2 1 2 1 3 6 9
25 22 20 18 16 15 15 14 14 13 13 15 15 16 18 16 9 3 0 1 7 8 2 6 18 28 31 21 5 3 9 11 9 7 5 4 5 6 6 7 8 7 8 8 6 5 4 2 1 2 2 0 0 2 2 3 2 0 1 3 4 2 2 2 3 3 2 1 4 3 1 1 1 4 5 4 4 4 2 1 1 1 1 1 2 3 7
25 22 19 17 15 15 15 14 13 13 14 15 15 16 15 9 2 2 4 3 4 8 8 15 27 32 27 13 3 7 12 11 11 7 3 2 4 6 7 9 9 8 5 4 4 3 2 2 3 2 1 1 1 2 2 0 1 1 2 3 2 2 1 1 3 3 3 5 7 7 4 3 2 5 5 4 3 2 1 0 2 2 1 2 2 6 9
24 21 19 16 14 14 14 13 12 13 14 15 16 13 7 3 3 4 4 2 5 11 16 20 22 19 17 13 10 10 11 12 12 5 1 1 3 5 6 8 8 7 5 3 3 3 3 4 6 4 0 2 1 1 2 1 1 1 2 3 5 3 2 3 2 3 2 4 5 5 4 3 5 5 5 4 2 2 3 3 3 2 2 3 5 9 10
23 19 18 16 14 13 14 12 12 13 14 15 15 11 3 2 1 1 2 3 6 10 12 11 9 13 20 21 14 7 6 12 11 4 3 3 4 5 6 7 6 5 2 3 2 3 3 5 7 3 1 2 1 1 1 0 1 1 2 6 5 2 2 5 4 4 4 4 4 4 5 6 5 4 3 3 3 4 5 5 3 3 0 4 8 10 10
21 18 17 16 14 13 13 12 12 13 14 14 12 7 1 2 2 3 4 6 9 10 10 9 11 16 20 17 13 8 10 15 12 6 5 6 6 6 8 8 6 3 2 3 3 4 4 4 4 3 3 1 1 1 1 0 1 0 3 5 1 3 2 3 2 4 4 3 5 6 6 5 4 4 3 4 5 6 5 3 3 3 5 6 9 11 11
20 17 16 16 14 13 13 12 12 13 14 13 12 10 6 4 6 7 7 9 10 9 8 7 8 8 8 11 17 16 9 15 14 10 9 9 9 9 10 10 7 3 3 4 4 4 3 3 3 4 5 2 2 1 1 1 2 2 2 3 0 1 2 3 2 5 4 2 4 5 4 3 4 5 4 4 6 6 5 4 4 6 8 8 8 9 9
19 17 16 16 15 13 13 13 13 14 15 15 14 10 6 5 8 10 11 11 10 8 5 5 4 2 5 12 18 14 6 12 14 12 10 11 12 11 9 9 7 5 5 4 3 3 3 2 1 3 4 4 3 0 1 2 1 1 2 3 2 2 3 2 0 3 4 1 1 3 4 5 7 6 4 4 6 6 7 7 5 5 7 8 8 9 8
18 17 16 16 15 13 13 14 14 14 15 15 12 7 3 2 4 6 8 9 7 6 5 6 3 3 7 11 12 9 7 11 14 13 9 11 14 12 6 4 5 4 5 5 4 3 3 3 3 2 2 3 2 0 1 1 3 5 3 1 2 3 3 0 2 1 4 3 2 3 4 4 7 6 5 6 7 6 6 6 6 7 10 10 9 9 8
17 16 16 15 14 12 12 12 12 12 12 11 10 7 5 5 7 8 8 8 6 4 5 6 5 3 4 6 6 6 7 8 11 13 12 13 15 12 7 4 3 3 5 5 4 3 3 4 5 3 1 1 2 1 2 3 4 6 3 3 4 5 4 5 5 3 4 4 2 2 1 1 3 6 8 9 8 8 8 7 6 9 12 12 11 10 10
16 16 15 13 11 10 9 8 7 6 5 5 6 6 7 10 13 12 11 10 8 6 5 5 4 3 3 3 4 7 9 9 6 5 11 11 9 9 8 4 2 4 5 5 3 3 5 7 5 2 1 0 0 2 5 4 1 5 5 6 8 8 5 3 2 3 5 5 3 3 2 3 6 9 10 9 7 8 9 7 7 9 11 12 11 10 10
16 15 12 8 7 8 7 4 2 2 3 4 7 9 11 13 13 11 9 10 10 11 9 5 4 6 6 4 5 8 9 8 7 2 8 9 6 7 8 4 2 3 3 2 3 4 6 8 5 2 1 2 4 7 11 8 6 6 5 5 7 8 6 6 7 6 5 7 7 7 7 8 10 10 10 8 7 8 8 6 7 10 10 10 11 10 10
15 12 9 6 7 7 4 1 3 5 6 7 9 10 10 9 7 5 6 6 6 10 12 7 7 11 9 6 8 12 9 5 6 4 3 4 2 4 5 3 3 4 1 2 4 4 4 4 3 2 2 4 8 11 13 11 10 9 8 9 11 11 9 7 7 9 10 10 10 10 9 9 9 9 9 9 9 8 8 7 7 9 11 10 9 10 9
13 11 7 4 5 5 4 4 6 7 6 7 8 7 6 5 3 3 6 7 5 8 10 8 10 14 10 5 8 12 8 4 5 4 1 1 1 2 4 2 2 2 1 2 2 3 1 0 2 3 2 2 7 10 10 10 10 9 8 10 12 12 11 9 7 8 10 10 9 10 9 8 9 10 9 9 9 8 7 8 8 9 11 11 9 9 9
11 10 5 4 6 8 8 8 8 7 5 5 4 4 4 5 4 4 5 5 3 6 9 8 10 14 14 12 9 7 4 3 3 2 1 2 2 1 1 1 1 2 0 3 3 3 2 0 2 3 1 2 5 9 10 10 10 8 8 9 11 11 9 7 7 9 11 10 9 10 8 6 8 9 9 8 8 8 7 8 9 8 9 10 9 8 8
12 11 7 7 10 11 10 10 8 7 5 4 4 3 3 4 5 5 4 3 2 5 10 9 7 7 11 14 10 3 2 3 4 2 2 2 2 1 1 1 2 2 1 3 3 2 2 2 3 1 2 4 8 12 14 14 11 9 10 11 11 10 8 5 6 10 11 10 8 8 7 6 5 6 6 6 7 7 7 7 7 6 7 9 8 7 6
11 11 10 11 12 9 6 6 6 5 3 3 3 2 2 3 4 4 4 3 3 3 7 9 5 2 4 7 7 3 2 4 4 2 1 2 2 2 1 1 1 1 2 3 2 1 1 3 2 0 4 7 9 12 15 14 11 8 8 7 7 8 8 7 8 10 11 11 9 7 6 6 5 4 4 4 4 5 6 5 5 5 6 7 7 6 4
6 7 9 11 10 6 3 3 5 5 3 2 2 2 2 2 3 2 3 4 4 3 5 6 3 2 2 5 6 5 5 5 4 2 1 1 1 1 0 1 0 1 2 2 1 1 1 1 1 4 8 9 9 11 14 15 12 9 6 5 5 5 5 6 7 8 8 10 10 8 7 7 7 5 4 2 3 5 5 4 3 3 4 6 7 6 5
3 3 5 6 5 3 2 1 5 5 2 1 2 3 2 2 3 3 3 3 2 2 4 3 1 2 3 5 4 4 5 5 3 2 1 1 1 0 1 1 2 1 2 2 0 2 1 1 3 7 10 11 12 14 16 15 13 12 10 8 8 6 6 7 8 7 6 7 8 7 8 8 8 7 7 5 4 4 5 4 3 4 4 5 5 5 5
3 4 4 3 3 2 1 2 4 4 3 2 2 3 2 3 4 4 3 6 8 9 9 8 4 3 5 6 3 2 3 2 3 2 1 0 1 1 0 1 2 2 1 2 1 2 2 1 3 7 11 14 16 16 14 13 12 13 12 10 8 8 9 9 9 8 8 8 8 8 9 9 9 9 8 5 3 3 4 5 5 4 4 5 5 7 8
5 5 4 2 2 3 2 1 1 2 2 3 4 5 5 6 6 5 7 13 16 13 9 9 8 6 7 8 5 5 5 3 2 2 0 1 0 1 1 1 2 2 1 2 2 3 3 2 3 9 15 17 15 13 11 11 10 10 12 11 9 8 9 10 9 9 10 9 9 9 10 10 10 8 7 5 5 4 3 4 4 4 5 6 7 9 10
5 5 3 2 3 4 3 3 4 6 7 7 9 9 9 10 10 9 8 13 18 15 7 6 7 7 8 8 6 5 5 3 0 0 0 1 0 1 1 1 1 1 1 1 2 2 2 3 8 13 15 15 13 13 12 11 10 11 12 12 9 7 7 9 9 9 9 8 9 10 10 10 9 7 6 7 7 5 3 3 5 6 6 7 8 9 10
5 5 3 2 2 2 2 4 7 11 16 16 12 8 9 10 13 12 9 11 15 16 11 8 7 5 6 6 4 2 2 2 1 1 0 1 1 1 2 1 1 2 1 2 2 2 3 6 11 14 12 11 13 14 12 10 10 11 12 10 7 6 7 9 9 8 7 7 8 9 9 9 9 7 5 6 7 6 4 4 6 8 8 9 9 10 10
5 5 4 3 3 4 8 12 11 11 14 14 11 13 11 7 7 10 11 12 14 16 15 12 7 2 2 3 2 1 2 2 2 1 1 1 1 0 0 1 2 2 1 1 3 6 8 10 12 11 9 9 12 12 10 10 12 13 12 9 7 7 7 8 8 8 7 8 8 8 8 8 9 8 8 7 5 5 5 5 6 8 9 9 9 9 10
6 6 6 6 5 6 11 13 9 6 8 9 12 14 10 5 3 4 7 10 13 15 15 11 6 2 1 2 1 1 2 2 1 1 1 1 2 1 1 1 2 2 1 2 6 11 13 12 11 10 8 8 11 12 12 12 13 12 10 8 8 7 6 7 8 8 7 7 8 8 8 8 9 9 10 9 6 5 5 5 5 8 9 7 5 6 8
5 6 7 10 10 10 11 11 7 6 8 7 7 9 10 9 6 4 6 9 11 10 8 6 5 3 1 0 1 1 2 3 2 2 0 1 1 2 2 3 4 4 6 11 15 16 14 12 12 12 9 8 10 11 11 10 10 9 8 9 10 9 8 8 10 9 9 8 8 8 8 8 8 8 8 8 9 9 6 4 4 6 8 6 4 4 5
5 5 8 12 15 18 18 16 14 15 16 11 5 6 10 10 8 7 8 9 8 7 7 8 6 2 0 1 2 2 2 2 2 1 1 2 0 2 3 4 4 9 15 18 18 16 13 10 10 10 9 9 10 9 8 9 11 11 11 11 10 9 9 10 10 9 9 9 9 8 8 8 8 7 6 7 10 10 6 3 4 5 6 5 5 5 4
Wind_Direction
345 344 340 337 337 339 343 347 353 356 351 350 353 355 354 326 305 305 306 304 278 230 259 274 255 231 284 303 306 309 310 298 314 333 333 327 320 240 252 257 258 282 294 303 303 285 229 171 241 298 167 194 223 225 218 219 232 229 212 263 252 95 109 151 149 139 176 190 208 216 235 233 163 200 218 161 170 183 164 172 193 203 228 200 125 166 254
348 347 346 344 343 345 346 348 354 1 358 351 347 347 339 316 311 311 302 298 289 264 285 309 311 302 302 302 289 283 281 279 297 322 325 308 293 271 278 272 268 287 289 282 288 292 275 146 241 281 174 206 226 211 200 209 227 198 139 297 219 173 107 141 139 98 161 182 202 219 232 231 182 207 204 193 185 181 189 242 263 271 234 172 128 170 253
350 350 350 349 350 350 349 351 357 2 0 353 347 343 331 319 319 326 328 316 270 256 285 300 302 311 318 316 311 310 275 260 276 293 297 302 308 285 280 289 283 282 292 288 283 284 238 129 240 252 212 214 229 202 194 205 221 196 192 4 6 185 129 121 146 148 166 182 192 209 224 213 294 275 200 200 192 178 188 207 129 259 251 154 124 176 249
349 351 352 352 354 353 351 354 360 4 3 356 354 352 336 323 328 337 334 328 307 292 303 310 308 316 325 325 328 345 348 305 299 299 309 351 347 306 273 297 290 285 312 312 295 283 146 186 250 233 206 217 220 209 204 205 211 203 231 345 7 156 149 129 145 155 175 177 163 165 169 172 230 271 225 211 218 186 168 162 178 201 242 146 152 153 151
349 350 352 353 356 356 354 357 3 10 10 2 4 7 352 337 338 349 342 332 333 337 333 335 331 313 319 327 322 335 345 348 4 0 351 2 352 322 275 327 330 318 326 328 310 226 191 224 250 180 203 284 166 197 204 198 204 310 289 331 15 89 144 152 144 179 204 174 154 166 182 195 210 228 227 228 237 205 142 173 205 161 124 249 202 134 130
349 350 352 354 356 357 357 359 3 9 16 15 17 19 11 0 335 343 355 342 333 339 324 318 313 310 315 323 311 326 349 3 16 2 340 359 1 357 336 339 342 333 327 329 312 283 213 244 328 142 234 340 53 33 325 264 279 347 353 333 46 88 149 170 153 248 242 202 175 170 178 202 213 205 204 214 237 243 178 185 213 117 123 196 180 130 130
349 349 352 354 356 359 0 360 1 6 15 21 27 29 13 358 324 327 345 334 306 302 300 297 299 310 318 326 323 335 352 4 19 355 318 347 1 10 353 331 335 334 327 331 354 354 356 341 353 6 343 353 67 40 318 306 290 300 321 322 34 88 25 20 52 301 278 241 194 170 169 194 217 205 201 213 232 241 213 189 191 98 133 160 151 127 120
348 348 352 354 357 0 1 1 2 5 8 18 32 33 7 355 340 324 326 321 306 302 302 298 297 310 322 331 337 342 349 356 3 18 28 346 335 350 359 336 332 332 330 341 55 25 355 329 330 351 352 348 44 115 254 269 267 228 216 343 24 74 16 5 61 23 299 270 181 156 169 182 197 209 221 228 227 234 232 188 120 99 137 158 144 124 99
347 347 351 354 356 359 0 3 5 5 6 11 20 20 1 351 344 330 320 312 313 317 317 312 305 308 329 338 342 345 347 345 344 355 135 138 284 282 316 330 325 331 347 3 21 348 329 305 302 324 334 303 285 283 262 208 183 210 219 16 33 76 41 350 64 45 286 276 45 57 176 170 178 209 223 225 214 203 243 227 152 137 132 133 137 132 135
346 347 349 351 354 358 359 3 5 5 8 9 6 1 355 350 346 341 328 297 304 323 327 318 315 330 344 340 337 336 335 334 338 343 154 162 210 248 277 327 339 349 351 346 330 317 306 298 301 303 296 283 280 287 289 224 142 183 38 51 27 79 82 39 68 43 277 197 64 38 132 148 185 234 237 225 196 161 207 263 188 160 137 129 166 174 159
344 345 347 349 352 355 357 1 7 7 7 8 357 347 349 349 343 339 329 289 303 324 328 330 334 333 330 331 332 330 329 330 332 323 281 231 249 243 160 33 7 331 306 307 326 320 309 304 303 296 291 298 310 314 306 228 154 194 129 91 0 54 90 66 103 160 279 35 68 45 67 125 215 245 298 51 122 129 210 239 215 204 163 131 148 156 146
343 343 345 348 350 353 356 357 5 8 4 2 352 344 348 350 343 338 330 301 310 321 325 324 316 313 321 330 335 332 324 319 313 304 295 297 299 289 116 104 325 286 288 311 334 331 321 318 313 305 318 331 328 313 300 198 158 184 120 114 40 49 79 325 197 158 278 22 62 51 55 205 239 250 80 72 71 73 56 285 252 213 170 124 120 138 150
341 342 343 346 347 350 352 353 -0 4 359 358 353 345 348 351 346 341 331 307 294 311 322 312 306 312 327 334 333 326 318 317 318 316 318 315 308 322 114 171 236 261 342 342 348 347 345 342 335 339 340 338 333 315 304 150 141 64 76 124 113 65 94 289 327 107 333 33 76 124 227 258 300 335 42 75 52 48 47 353 305 249 182 145 133 148 160
337 339 341 344 346 347 348 350 356 1 358 357 353 347 353 358 346 336 331 313 286 303 304 301 309 322 329 327 325 322 318 322 327 329 335 334 327 0 24 288 252 273 87 98 60 16 35 15 354 1 344 343 7 337 313 133 134 239 185 175 254 33 87 347 352 41 69 75 120 159 342 335 335 330 323 99 92 86 91 28 290 275 230 168 148 148 152
336 337 339 341 343 345 345 346 351 356 355 352 351 356 3 352 341 338 329 314 305 302 292 306 331 328 323 320 322 323 321 327 332 329 332 336 350 21 11 343 326 18 79 103 120 277 71 39 29 31 351 359 37 316 306 111 146 221 211 178 204 237 219 145 106 59 81 78 55 61 54 317 279 271 271 175 118 148 124 94 291 298 340 95 152 148 145
334 335 337 339 340 341 343 343 346 351 351 348 350 4 14 342 340 346 329 318 304 284 296 317 321 313 307 314 321 327 336 338 332 329 333 337 346 2 357 346 345 13 78 94 91 75 72 45 38 52 327 331 40 301 290 117 153 216 215 190 203 224 236 112 95 65 96 103 92 164 164 238 248 250 260 268 110 114 96 77 290 298 1 11 72 149 146
333 333 334 337 337 339 341 342 343 345 347 348 348 355 13 341 329 335 326 315 275 277 297 320 330 314 308 314 321 330 332 322 324 334 323 322 337 349 346 343 351 15 47 74 77 59 84 96 52 17 295 281 12 278 269 129 139 195 212 206 213 227 259 92 98 92 150 140 180 229 199 252 252 228 204 176 110 87 94 133 256 285 343 360 21 143 153
332 332 331 332 334 337 338 338 341 342 344 347 345 349 4 345 327 331 319 310 287 276 295 321 325 306 302 300 300 307 313 311 317 331 308 301 329 342 334 333 350 6 5 22 88 12 71 139 170 154 246 281 284 281 297 3 119 202 185 141 196 280 31 115 133 146 163 157 180 237 248 257 265 223 150 135 94 70 105 197 239 290 336 357 18 118 164
331 330 330 330 332 335 335 335 338 339 342 345 342 346 357 350 344 346 319 306 277 275 297 310 309 300 302 299 287 285 293 296 292 303 313 311 339 336 329 336 16 6 351 5 22 302 333 340 214 141 119 235 259 283 314 332 301 284 99 100 68 320 11 113 151 143 117 187 192 277 286 266 281 78 106 105 91 85 220 223 273 337 360 7 11 23 163
330 328 327 328 330 332 333 333 335 336 339 342 338 339 352 1 354 338 316 307 293 291 301 312 314 303 303 292 278 278 291 293 287 299 317 308 331 338 339 6 11 358 355 15 4 313 357 355 328 5 85 117 266 284 298 295 288 273 145 147 196 197 125 209 203 168 112 117 139 104 237 255 298 72 77 80 122 195 238 295 353 14 21 18 14 17 47
328 326 326 325 327 329 329 330 333 334 334 338 334 332 342 357 349 302 295 306 298 289 298 314 312 303 296 285 278 273 268 267 269 280 298 305 322 338 339 316 342 351 7 4 345 326 0 354 318 341 40 34 308 291 317 319 290 260 176 157 200 199 147 171 221 180 128 166 231 224 235 248 88 98 113 122 126 116 43 18 23 27 23 18 18 19 24
327 324 323 323 324 327 327 328 332 331 329 334 334 327 330 347 357 289 280 297 284 276 291 308 311 305 300 301 302 288 271 269 269 266 270 287 307 307 286 307 347 8 346 348 346 339 359 351 314 340 347 279 298 317 19 44 289 285 117 126 191 216 160 147 154 29 139 180 201 211 297 45 73 87 100 107 99 78 61 52 42 38 29 19 20 24 31
327 323 322 322 323 324 325 325 328 328 326 329 328 321 324 338 351 320 296 305 297 295 306 318 321 312 314 334 342 329 302 288 281 260 248 254 285 301 290 325 18 10 348 3 13 254 321 314 256 301 296 262 273 11 24 62 277 299 327 351 283 213 152 139 128 47 49 50 77 61 41 48 72 80 82 89 88 70 65 61 42 36 29 21 29 46 65
329 324 321 320 321 321 323 324 324 325 325 324 323 320 321 332 341 329 314 313 310 310 319 324 315 307 320 335 335 326 310 295 300 299 224 218 235 268 297 21 18 353 329 342 337 305 287 285 243 190 249 271 123 79 28 350 310 319 328 326 317 323 17 67 131 110 73 332 325 18 25 39 80 81 63 63 77 65 39 37 42 48 33 28 47 76 92
332 326 322 320 319 317 319 320 321 323 323 322 321 320 320 330 336 323 302 303 304 301 308 312 308 309 324 321 316 312 310 302 296 300 217 215 228 233 239 308 344 329 314 323 325 308 285 280 252 202 258 330 86 99 175 216 253 334 4 338 292 314 340 356 92 118 105 164 226 27 56 62 62 60 44 52 74 66 13 16 36 48 336 23 67 116 123
332 326 321 320 319 316 316 316 318 322 323 321 319 318 322 330 330 305 267 293 301 289 263 286 301 318 326 319 307 291 292 288 277 271 253 223 231 237 253 285 308 316 317 315 308 296 283 269 255 273 282 73 109 189 185 195 242 287 267 260 265 275 299 325 35 52 56 58 353 17 59 50 35 49 79 96 82 63 30 28 39 309 261 0 80 138 152
333 327 321 319 318 316 313 312 314 318 318 316 316 318 322 327 328 308 102 3 300 293 254 273 298 316 324 323 323 313 291 266 252 270 263 213 214 234 256 280 286 297 316 316 300 284 267 251 254 250 255 13 177 242 213 197 211 188 233 280 317 327 301 7 58 60 72 221 274 291 208 209 9 80 106 110 87 69 44 24 81 180 254 336 78 138 169
336 328 321 319 319 315 311 309 310 315 316 314 316 322 325 330 359 53 74 109 255 279 292 291 297 310 319 316 303 325 305 265 241 258 272 212 207 220 240 264 274 285 308 318 303 281 243 267 282 260 278 34 26 297 312 17 78 28 265 282 357 23 308 28 106 148 190 193 211 230 225 190 124 104 106 99 87 94 92 78 166 171 4 358 134 135 146
337 329 322 321 320 313 307 304 306 312 313 313 319 329 344 41 57 36 59 104 265 286 299 302 300 304 309 305 307 319 300 256 234 230 65 134 194 223 245 257 269 280 273 252 272 274 254 276 287 281 179 101 132 271 308 33 93 241 269 13 39 46 337 348 64 122 148 155 180 219 217 142 106 106 116 112 116 158 147 132 166 190 23 55 137 140 138
335 328 322 320 317 309 302 300 305 308 308 313 324 337 17 112 28 33 128 187 262 287 303 307 300 301 306 310 318 322 256 226 218 195 135 183 228 260 256 245 260 281 249 191 237 274 279 288 292 289 153 138 148 235 218 144 237 214 52 31 36 95 49 3 27 81 104 130 147 164 165 140 116 115 134 146 165 166 145 134 161 206 148 103 123 132 141
334 326 319 316 313 304 296 294 298 301 301 307 314 315 278 162 203 187 184 223 259 289 301 282 276 295 305 313 325 311 233 207 197 183 182 206 233 247 237 238 257 266 186 197 253 274 277 277 285 322 351 348 198 236 255 290 281 266 29 21 10 174 89 17 48 96 106 148 154 142 145 145 140 148 154 152 160 166 164 154 131 138 151 133 117 129 149
332 323 316 313 309 300 293 291 292 293 292 292 288 279 269 270 264 257 253 256 271 297 308 283 281 295 297 312 324 315 250 196 184 186 195 205 218 224 227 237 252 251 236 262 276 270 259 246 261 316 320 269 202 268 291 201 188 239 331 12 180 210 7 15 89 99 88 153 174 146 131 128 142 154 151 139 141 147 154 147 111 120 147 143 119 126 145
330 323 317 313 306 297 289 285 284 283 283 284 286 288 285 274 268 265 261 263 281 301 293 272 293 293 269 299 319 318 251 187 180 186 194 203 212 218 225 235 247 252 252 254 249 248 256 249 264 309 276 221 198 332 295 213 216 351 31 58 57 9 7 3 151 97 69 41 198 155 133 132 137 140 144 151 149 135 125 126 118 125 146 142 126 127 139
328 323 317 311 304 296 287 281 279 278 280 283 288 293 286 258 278 279 261 254 273 295 268 247 257 276 280 297 312 303 247 197 183 186 197 207 211 212 208 213 230 237 234 229 228 248 258 227 201 220 235 210 192 64 330 311 13 37 53 62 44 49 55 343 252 98 70 65 99 112 109 138 149 140 128 135 144 139 132 134 131 130 135 134 126 125 135
327 322 317 310 304 295 285 281 280 279 283 290 297 302 305 302 306 303 281 260 259 264 250 241 237 258 292 302 309 303 283 239 210 202 195 196 207 211 193 174 206 227 218 212 212 234 238 203 185 190 197 151 108 88 280 303 15 53 82 159 146 131 160 217 224 172 108 109 121 93 54 226 175 142 128 123 124 129 137 142 141 137 135 136 135 132 136
325 322 317 312 309 298 290 295 299 294 294 301 300 301 303 300 298 296 284 271 259 247 253 265 256 246 267 278 289 305 309 305 287 200 169 173 201 207 187 177 239 227 199 190 201 236 217 189 170 148 137 144 110 187 210 232 39 77 115 150 142 134 144 168 148 129 138 138 107 66 84 126 119 118 124 123 118 125 134 140 148 147 139 139 150 155 150
325 325 319 317 322 314 307 322 327 287 267 261 269 282 288 287 288 285 269 259 252 240 239 255 269 253 244 246 280 298 302 317 343 43 149 161 180 188 181 186 224 196 187 214 234 221 196 181 166 89 78 180 189 177 169 157 119 101 118 129 116 101 84 65 57 66 103 111 80 63 88 111 105 102 109 109 104 117 128 132 151 161 155 148 156 164 162
323 319 309 314 333 330 322 267 224 247 265 271 277 286 281 267 266 263 235 227 240 234 223 222 257 259 250 248 276 285 288 316 346 341 179 160 152 176 182 195 198 179 182 268 230 197 171 165 147 88 88 136 147 149 145 133 116 101 88 84 82 73 57 43 46 62 78 79 63 57 73 86 86 90 101 102 94 100 113 115 132 162 168 162 158 162 163
324 319 303 302 316 303 282 276 267 264 279 286 281 281 261 229 222 226 205 195 206 220 212 217 245 247 237 236 268 277 282 317 345 337 336 11 343 189 182 215 224 171 119 300 227 174 156 290 110 99 82 113 127 131 126 114 107 95 76 76 76 67 57 50 52 73 90 86 70 68 74 77 79 85 94 98 91 90 108 116 120 142 159 162 164 168 168
342 339 325 305 297 278 267 277 282 279 289 288 265 256 239 215 210 211 195 182 190 205 204 220 246 243 235 239 253 271 296 307 304 314 318 289 272 211 161 278 184 130 48 279 217 165 167 3 82 107 169 176 141 140 133 119 109 94 81 87 85 71 65 66 67 85 106 108 92 83 83 89 96 94 92 97 96 92 106 122 120 124 143 156 165 173 177
348 343 330 319 314 296 275 269 267 263 270 266 240 238 239 219 222 230 220 218 250 218 207 217 240 241 235 242 250 265 338 302 286 289 294 269 246 237 331 238 166 121 321 252 201 162 146 105 73 84 192 156 136 133 127 120 111 92 84 94 93 76 71 87 79 76 90 100 93 79 72 73 91 99 98 105 106 96 99 119 127 127 140 156 169 178 189
336 329 322 322 328 325 303 275 248 223 225 240 234 236 240 224 232 238 219 220 262 244 212 219 235 239 232 252 268 282 312 320 318 301 251 261 235 211 259 294 126 106 264 230 196 61 91 104 76 247 172 153 147 138 127 127 131 114 92 102 104 79 72 90 87 73 78 89 89 84 83 86 93 100 100 110 117 107 105 121 138 138 143 162 182 197 214
311 311 318 320 327 343 345 272 222 199 201 236 223 226 254 243 233 231 224 233 247 242 220 225 257 339 292 267 269 261 258 282 302 269 214 260 258 204 0 344 297 234 271 281 47 74 91 96 142 179 167 160 160 148 135 135 143 133 108 118 130 97 76 93 96 82 80 87 88 90 100 106 111 114 113 121 140 133 126 131 158 185 191 194 206 223 237
294 321 333 313 303 324 2 214 199 193 200 219 194 204 241 260 240 233 247 265 282 284 269 265 356 21 305 268 250 245 248 250 249 248 255 300 306 34 62 294 263 285 323 323 130 131 106 70 124 153 157 153 147 140 136 139 142 132 120 130 147 144 130 119 110 98 93 94 97 105 109 111 118 125 125 133 159 170 171 177 200 221 214 199 202 215 215
0 346 342 311 269 266 261 209 201 210 233 246 221 216 235 252 248 249 285 320 322 315 314 321 346 352 312 297 274 249 258 236 204 221 255 24 353 325 290 254 278 326 340 300 324 71 76 104 142 140 136 133 130 130 133 139 140 134 130 135 144 146 135 122 114 113 115 113 117 123 122 121 125 127 126 132 152 171 176 180 186 187 168 152 154 161 160
6 328 318 316 278 259 255 235 206 207 202 199 215 231 240 249 264 292 324 320 311 310 325 344 348 338 322 320 311 276 271 265 211 211 277 76 85 287 303 333 338 352 341 313 358 72 103 148 143 127 124 124 126 129 133 133 131 132 132 128 117 110 111 110 110 116 118 118 121 124 123 123 122 119 118 125 128 122 123 131 135 144 150 147 148 154 158
347 312 299 300 276 259 251 249 256 275 287 272 256 260 273 286 303 319 315 304 307 315 327 330 318 303 292 295 294 274 274 285 256 180 32 79 160 283 350 43 354 262 243 352 24 75 108 112 113 118 122 125 130 132 129 124 124 129 130 125 115 108 110 113 114 115 115 117 121 121 122 124 122 115 112 122 129 137 145 122 113 128 145 150 151 155 161
316 301 291 289 261 228 242 280 286 291 291 287 286 305 320 323 331 334 314 295 309 321 315 296 299 306 290 283 277 249 263 281 246 219 284 83 82 357 4 14 294 271 202 104 102 113 108 106 113 120 126 133 136 133 124 120 124 125 122 122 131 135 124 118 118 121 125 127 124 120 124 130 128 121 119 123 120 118 121 120 121 128 136 143 151 157 160
282 275 265 275 276 273 288 297 300 294 289 297 336 10 8 346 333 330 316 308 321 329 320 307 305 322 314 304 303 263 264 260 217 165 35 59 107 150 253 245 269 288 299 142 140 130 115 107 111 120 126 133 137 136 133 135 137 129 117 117 131 136 127 122 123 122 124 128 128 127 131 135 133 130 130 127 109 84 83 101 123 132 134 138 147 153 156
263 251 242 246 260 284 294 296 297 297 302 327 3 13 358 329 322 339 326 319 325 331 331 323 307 264 272 329 334 287 275 271 219 128 111 148 161 165 227 242 236 232 227 79 102 114 118 119 124 129 131 132 134 133 132 136 137 130 125 134 142 139 134 138 140 136 134 136 137 135 132 133 137 141 138 131 123 106 88 88 117 141 146 146 141 137 144
245 241 238 237 241 257 277 286 288 292 300 319 354 355 332 314 310 325 332 327 325 329 332 319 292 265 235 275 248 245 284 309 356 56 131 220 183 152 191 235 227 180 129 100 95 101 110 122 133 136 136 139 140 138 138 143 141 133 136 147 148 140 135 137 139 141 142 139 136 137 137 136 142 150 146 137 139 144 137 109 121 151 162 170 169 148 137
233 251 267 264 259 259 264 268 270 274 277 277 296 332 325 312 306 317 333 337 334 327 311 298 294 300 232 266 296 335 335 322 352 20 295 284 130 147 207 244 210 149 125 109 100 99 98 105 124 138 144 146 144 141 149 157 150 138 135 140 140 138 138 138 135 136 139 137 133 136 139 137 137 137 126 120 131 142 146 132 130 146 158 168 177 181 168